Weather History for Manhattan, KS

Change the Weather History Date:

Tuesday, November 5, 2013

  Actual Average Record
Temperature  
Mean Temperature 49 °F 47 °F  
Max Temperature 60 °F 60 °F 73 °F (2001)
Min Temperature 38 °F 35 °F 25 °F (2010)
Degree Days  
Heating Degree Days 16 18  
Month to date heating degree days 73 85  
Since 1 July heating degree days 425 484  
Cooling Degree Days 0 0  
Month to date cooling degree days 0 0  
Year to date cooling degree days 1513 1361  
Moisture  
Dew Point 51 °F    
Average Humidity 90    
Maximum Humidity 100    
Minimum Humidity 80    
Precipitation  
Precipitation 0.48 in 0.07 in 0.48 in (2013)
Month to date precipitation 0.50 0.39  
Year to date precipitation 28.56 30.32  
Sea Level Pressure  
Sea Level Pressure 29.94 in    
Wind  
Wind Speed 8 mph (South)    
Max Wind Speed 22 mph    
Max Gust Speed 28 mph    
Visibility 8 miles    
Events Rain    
T = Trace of Precipitation, MM = Missing Value Source: NWS Daily Summary

Daily Weather History Graph

Daily Weather History Graph

Search for Another Location

Airport:

Trip Planner

Search our weather history database for the weather conditions in past years. The results will help you decide how hot, cold, wet, or windy it might be!

Date:

Astronomy

Nov. 05, 2013 Rise Set
Actual Time 6:59 AM CST 5:21 PM CST
Civil Twilight 6:31 AM CST 5:49 PM CST
Nautical Twilight 5:59 AM CST 6:20 PM CST
Astronomical Twilight 5:27 AM CST 6:52 PM CST
Moon 9:14 AM CST (11/5) 7:24 PM CST (11/5)
Length of Visible Light 11h 18m
Length of Day
10h 22m
Waxing Crescent, 7% of the Moon is Illuminated
Nov 5
Waxing Crescent
Nov 9
First Quarter
Nov 17
Full
Nov 25
Last Quarter
Dec 2
New

Hourly Weather History & Observations

Time (CST) Temp. Windchill Dew Point Humidity Pressure Visibility Wind Dir Wind Speed Gust Speed Precip Events Conditions
12:52 AM 48.0 °F - 43.0 °F 83% 30.08 in 10.0 mi NE 3.5 mph - N/A   Overcast
1:06 AM 48.2 °F - 42.8 °F 82% 30.07 in 10.0 mi NE 3.5 mph - N/A   Overcast
1:52 AM 48.9 °F - 43.0 °F 80% 30.07 in 10.0 mi NE 4.6 mph - N/A   Overcast
2:12 AM 48.2 °F - 44.6 °F 87% 30.06 in 10.0 mi NE 3.5 mph - N/A   Overcast
2:43 AM 48.2 °F - 44.6 °F 87% 30.06 in 10.0 mi NE 3.5 mph - N/A   Overcast
2:52 AM 50.0 °F - 45.0 °F 83% 30.05 in 10.0 mi NE 3.5 mph - N/A   Overcast
3:52 AM 50.0 °F - 46.9 °F 89% 30.04 in 10.0 mi NE 3.5 mph - N/A   Overcast
4:52 AM 50.0 °F - 48.9 °F 96% 30.04 in 10.0 mi North 3.5 mph - N/A   Overcast
5:52 AM 52.0 °F - 52.0 °F 100% 30.02 in 9.0 mi East 3.5 mph - N/A   Overcast
6:52 AM 55.0 °F - 55.0 °F 100% 30.00 in 7.0 mi SE 8.1 mph - N/A   Overcast
7:20 AM 55.4 °F - 55.4 °F 100% 29.98 in 10.0 mi SSE 8.1 mph - N/A   Overcast
7:39 AM 55.4 °F - 55.4 °F 100% 29.98 in 10.0 mi SSE 9.2 mph - N/A   Overcast
7:52 AM 57.0 °F - 55.0 °F 93% 29.99 in 10.0 mi SE 8.1 mph - N/A   Overcast
8:01 AM 57.2 °F - 55.4 °F 94% 29.97 in 10.0 mi SSE 8.1 mph - N/A   Overcast
8:52 AM 57.0 °F - 55.9 °F 96% 29.98 in 10.0 mi SSE 10.4 mph - N/A   Overcast
9:52 AM 57.9 °F - 55.9 °F 93% 29.95 in 10.0 mi South 13.8 mph 20.7 mph N/A   Overcast
10:02 AM 59.0 °F - 55.4 °F 88% 29.94 in 10.0 mi South 18.4 mph 25.3 mph N/A   Overcast
10:52 AM 57.9 °F - 55.9 °F 93% 29.94 in 10.0 mi South 16.1 mph 24.2 mph N/A   Overcast
11:52 AM 57.9 °F - 57.0 °F 97% 29.91 in 3.0 mi South 12.7 mph - 0.05 in Rain Rain
12:52 PM 59.0 °F - 57.9 °F 96% 29.86 in 10.0 mi South 11.5 mph - 0.02 in   Overcast
1:52 PM 60.1 °F - 59.0 °F 96% 29.84 in 8.0 mi South 11.5 mph - 0.00 in Rain Light Rain
2:52 PM 60.1 °F - 59.0 °F 96% 29.82 in 6.0 mi South 11.5 mph - 0.02 in Rain Light Rain
3:21 PM 59.0 °F - 59.0 °F 100% 29.82 in 5.0 mi SSW 10.4 mph 18.4 mph 0.05 in Rain Light Rain
3:28 PM 59.0 °F - 59.0 °F 100% 29.82 in 5.0 mi SSW 10.4 mph - 0.06 in Rain Light Rain
3:52 PM 59.0 °F - 59.0 °F 100% 29.82 in 8.0 mi South 8.1 mph - 0.08 in Rain Light Rain
3:59 PM 60.8 °F - 59.0 °F 94% 29.81 in 8.0 mi South 12.7 mph - 0.00 in Rain Light Rain
4:52 PM 60.1 °F - 59.0 °F 96% 29.82 in 10.0 mi SSW 11.5 mph - 0.03 in Rain Light Rain
5:08 PM 60.8 °F - 59.0 °F 94% 29.82 in 10.0 mi SSW 9.2 mph - 0.00 in   Overcast
5:52 PM 60.1 °F - 59.0 °F 96% 29.82 in 10.0 mi SSW 10.4 mph - 0.00 in   Overcast
6:04 PM 60.8 °F - 60.8 °F 100% 29.82 in 10.0 mi SW 13.8 mph - 0.00 in Rain Light Rain
6:06 PM 60.8 °F - 60.8 °F 100% 29.84 in 4.0 mi West 15.0 mph - 0.04 in Rain Light Rain
6:14 PM 55.4 °F - 55.4 °F 100% 29.85 in 2.5 mi West 10.4 mph 19.6 mph 0.06 in Rain Light Rain
6:21 PM 55.4 °F - 55.4 °F 100% 29.85 in 5.0 mi WNW 8.1 mph 18.4 mph 0.06 in Rain Light Rain
6:52 PM 52.0 °F - 51.1 °F 97% 29.88 in 6.0 mi Variable 4.6 mph - 0.07 in Rain Light Rain
7:21 PM 48.2 °F - 48.2 °F 100% 29.91 in 8.0 mi West 11.5 mph 18.4 mph 0.03 in Rain Light Rain
7:52 PM 46.0 °F 41.9 °F 46.0 °F 100% 29.92 in 9.0 mi NW 8.1 mph - 0.07 in Rain Light Rain
8:10 PM 44.6 °F 40.7 °F 44.6 °F 100% 29.93 in 10.0 mi Variable 6.9 mph - 0.00 in   Overcast
8:18 PM 44.6 °F 43.1 °F 44.6 °F 100% 29.94 in 10.0 mi Variable 3.5 mph - 0.00 in Rain Light Rain
8:30 PM 44.6 °F 40.7 °F 44.6 °F 100% 29.95 in 1.8 mi WNW 6.9 mph 17.3 mph 0.10 in Rain Heavy Rain
8:40 PM 44.6 °F 41.4 °F 42.8 °F 93% 29.96 in 3.0 mi WNW 5.8 mph - 0.13 in Rain Light Rain
8:52 PM 43.0 °F 39.5 °F 42.1 °F 97% 29.97 in 10.0 mi Variable 5.8 mph - 0.14 in Rain Light Rain
9:52 PM 41.0 °F 35.2 °F 39.9 °F 96% 30.01 in 10.0 mi North 9.2 mph 17.3 mph 0.00 in   Overcast
10:52 PM 39.0 °F 32.8 °F 37.0 °F 93% 30.06 in 10.0 mi NW 9.2 mph 18.4 mph N/A   Overcast
11:52 PM 37.9 °F 32.7 °F 36.0 °F 93% 30.08 in 10.0 mi NNW 6.9 mph 17.3 mph N/A   Overcast